When you browse on this site, cookies collect data to enhance your experience and personalize the content and advertising you see.
Visit our Privacy Policy to learn more. By continuing to use the site, you agree to this use of cookies and data.
  • In Netherlands
  • List of Countries
  • For 7 days
  • Water Temperature
  • Weather Map
  • Weather Widgets
  • user-avatar
    Login

    Hourly Weather Pabna

    Today, 6 June, Saturday

    Time Temperature Precipitation Wind Pressure Humidity
    00:00 +33°C° 0 mm 6 mps 750 mmHg 68%
    01:00 +32°C° 0 mm 6 mps 749 mmHg 70%
    02:00 +32°C° 0 mm 5 mps 749 mmHg 72%
    03:00 +32°C° 0 mm 5 mps 748 mmHg 73%
    04:00 +32°C° 0.1 mm 4 mps 749 mmHg 73%
    05:00 +32°C° 0.1 mm 4 mps 749 mmHg 74%
    06:00 +32°C° 0 mm 5 mps 749 mmHg 75%
    07:00 +33°C° 0.2 mm 5 mps 750 mmHg 68%
    08:00 +35°C° 0.2 mm 5 mps 750 mmHg 60%
    09:00 +37°C° 0.2 mm 4 mps 750 mmHg 53%
    10:00 +38°C° 0 mm 4 mps 750 mmHg 49%
    11:00 +40°C° 0 mm 4 mps 750 mmHg 44%
    12:00 +40°C° 0 mm 3 mps 749 mmHg 40%
    13:00 +40°C° 0 mm 3 mps 748 mmHg 40%
    14:00 +39°C° 0 mm 3 mps 747 mmHg 40%
    15:00 +39°C° 0 mm 3 mps 747 mmHg 39%
    16:00 +39°C° 0 mm 2 mps 746 mmHg 41%
    17:00 +39°C° 0 mm 2 mps 746 mmHg 43%
    18:00 +38°C° 0 mm 2 mps 746 mmHg 44%
    19:00 +37°C° 0 mm 3 mps 747 mmHg 50%
    20:00 +35°C° 0 mm 5 mps 747 mmHg 56%
    21:00 +34°C° 0 mm 6 mps 748 mmHg 63%
    22:00 +33°C° 0 mm 5 mps 748 mmHg 64%
    23:00 +33°C° 0 mm 4 mps 749 mmHg 65%

    Tomorrow, 7 June, Sunday

    Time Temperature Precipitation Wind Pressure Humidity
    00:00 +33°C° 0 mm 4 mps 749 mmHg 67%
    01:00 +31°C° 0 mm 3 mps 748 mmHg 69%
    02:00 +31°C° 0 mm 3 mps 748 mmHg 72%
    03:00 +30°C° 0 mm 3 mps 748 mmHg 74%
    04:00 +30°C° 0 mm 3 mps 748 mmHg 76%
    05:00 +30°C° 0 mm 2 mps 748 mmHg 77%
    06:00 +30°C° 0 mm 2 mps 748 mmHg 79%
    07:00 +33°C° 0 mm 3 mps 749 mmHg 70%
    08:00 +35°C° 0 mm 3 mps 749 mmHg 61%
    09:00 +37°C° 0 mm 3 mps 749 mmHg 52%
    10:00 +39°C° 0 mm 3 mps 749 mmHg 46%
    11:00 +40°C° 0 mm 3 mps 749 mmHg 40%
    12:00 +43°C° 0 mm 3 mps 748 mmHg 35%
    13:00 +42°C° 0 mm 3 mps 747 mmHg 35%
    14:00 +41°C° 0 mm 2 mps 747 mmHg 35%
    15:00 +41°C° 0 mm 2 mps 746 mmHg 35%
    16:00 +40°C° 0 mm 2 mps 746 mmHg 37%
    17:00 +40°C° 0 mm 1 mps 745 mmHg 39%
    18:00 +39°C° 0 mm 1 mps 745 mmHg 42%
    19:00 +38°C° 0 mm 2 mps 746 mmHg 45%
    20:00 +37°C° 0 mm 2 mps 746 mmHg 49%
    21:00 +35°C° 0 mm 3 mps 747 mmHg 52%
    22:00 +35°C° 0 mm 3 mps 747 mmHg 53%
    23:00 +35°C° 0 mm 4 mps 747 mmHg 55%

    Day after tomorrow, 8 June, Monday

    Time Temperature Precipitation Wind Pressure Humidity
    00:00 +35°C° 0 mm 4 mps 747 mmHg 56%
    01:00 +34°C° 0 mm 4 mps 747 mmHg 61%
    02:00 +33°C° 0 mm 4 mps 747 mmHg 65%
    03:00 +33°C° 0 mm 4 mps 747 mmHg 69%
    04:00 +33°C° 0 mm 3 mps 747 mmHg 71%
    05:00 +31°C° 0 mm 3 mps 747 mmHg 74%
    06:00 +31°C° 0 mm 3 mps 747 mmHg 76%
    07:00 +34°C° 0 mm 3 mps 747 mmHg 68%
    08:00 +36°C° 0 mm 3 mps 748 mmHg 61%
    09:00 +38°C° 0 mm 3 mps 748 mmHg 54%
    10:00 +39°C° 0 mm 3 mps 748 mmHg 48%
    11:00 +40°C° 0 mm 2 mps 747 mmHg 42%
    12:00 +42°C° 0 mm 2 mps 746 mmHg 36%
    13:00 +40°C° 0.2 mm 3 mps 746 mmHg 42%
    14:00 +38°C° 0.2 mm 4 mps 745 mmHg 47%
    15:00 +37°C° 0.2 mm 5 mps 745 mmHg 53%
    16:00 +36°C° 0.3 mm 4 mps 745 mmHg 54%
    17:00 +36°C° 0.3 mm 4 mps 745 mmHg 55%
    18:00 +36°C° 0.3 mm 4 mps 745 mmHg 55%
    19:00 +35°C° 0.1 mm 4 mps 745 mmHg 59%
    20:00 +34°C° 0.1 mm 4 mps 746 mmHg 62%
    21:00 +33°C° 0.1 mm 4 mps 747 mmHg 65%
    22:00 +33°C° 0 mm 4 mps 747 mmHg 65%
    23:00 +33°C° 0 mm 3 mps 747 mmHg 66%

    9 June, Tuesday

    Time Temperature Precipitation Wind Pressure Humidity
    00:00 +33°C° 0 mm 3 mps 747 mmHg 66%
    01:00 +33°C° 0 mm 3 mps 747 mmHg 68%
    02:00 +31°C° 0 mm 2 mps 747 mmHg 70%
    03:00 +31°C° 0 mm 2 mps 747 mmHg 72%
    04:00 +31°C° 0 mm 2 mps 747 mmHg 73%
    05:00 +31°C° 0 mm 2 mps 747 mmHg 74%
    06:00 +31°C° 0 mm 2 mps 747 mmHg 75%
    07:00 +34°C° 0 mm 3 mps 748 mmHg 68%
    08:00 +35°C° 0 mm 3 mps 748 mmHg 60%
    09:00 +37°C° 0 mm 4 mps 749 mmHg 53%
    10:00 +38°C° 0 mm 4 mps 748 mmHg 48%
    11:00 +40°C° 0 mm 3 mps 748 mmHg 44%
    12:00 +42°C° 0 mm 3 mps 747 mmHg 40%
    13:00 +41°C° 0 mm 2 mps 747 mmHg 37%
    14:00 +42°C° 0 mm 2 mps 746 mmHg 35%
    15:00 +42°C° 0 mm 1 mps 745 mmHg 33%
    16:00 +42°C° 0 mm 1 mps 745 mmHg 35%
    17:00 +41°C° 0 mm 2 mps 745 mmHg 37%
    18:00 +40°C° 0 mm 2 mps 744 mmHg 39%
    19:00 +39°C° 0 mm 2 mps 745 mmHg 42%
    20:00 +38°C° 0 mm 3 mps 746 mmHg 44%
    21:00 +37°C° 0 mm 3 mps 746 mmHg 47%
    22:00 +36°C° 0 mm 4 mps 746 mmHg 51%
    23:00 +35°C° 0 mm 4 mps 747 mmHg 55%

    10 June, Wednesday

    Time Temperature Precipitation Wind Pressure Humidity
    00:00 +35°C° 0 mm 5 mps 747 mmHg 59%
    01:00 +34°C° 0 mm 4 mps 747 mmHg 62%
    02:00 +33°C° 0 mm 3 mps 747 mmHg 65%
    03:00 +33°C° 0 mm 3 mps 747 mmHg 67%
    04:00 +31°C° 0.2 mm 2 mps 747 mmHg 70%
    05:00 +31°C° 0.2 mm 2 mps 747 mmHg 72%
    06:00 +31°C° 0.2 mm 2 mps 748 mmHg 74%
    07:00 +33°C° 0 mm 3 mps 748 mmHg 67%
    08:00 +35°C° 0 mm 3 mps 749 mmHg 61%
    09:00 +37°C° 0 mm 4 mps 749 mmHg 54%
    10:00 +38°C° 0 mm 4 mps 749 mmHg 51%
    11:00 +40°C° 0 mm 4 mps 748 mmHg 49%
    12:00 +40°C° 0 mm 3 mps 748 mmHg 46%
    13:00 +41°C° 0.1 mm 4 mps 747 mmHg 46%
    14:00 +40°C° 0.1 mm 4 mps 747 mmHg 47%
    15:00 +40°C° 0.1 mm 4 mps 746 mmHg 48%
    16:00 +38°C° 0 mm 4 mps 746 mmHg 51%
    17:00 +38°C° 0 mm 4 mps 745 mmHg 53%
    18:00 +37°C° 0 mm 4 mps 745 mmHg 56%
    19:00 +36°C° 0 mm 4 mps 746 mmHg 57%
    20:00 +36°C° 0 mm 4 mps 746 mmHg 58%
    21:00 +35°C° 0 mm 4 mps 747 mmHg 59%
    22:00 +35°C° 0 mm 5 mps 747 mmHg 61%
    23:00 +34°C° 0 mm 5 mps 747 mmHg 62%

    11 June, Thursday

    Time Temperature Precipitation Wind Pressure Humidity
    00:00 +34°C° 0 mm 6 mps 747 mmHg 64%
    01:00 +33°C° 0 mm 5 mps 747 mmHg 66%
    02:00 +33°C° 0 mm 5 mps 747 mmHg 68%
    03:00 +32°C° 0 mm 4 mps 746 mmHg 70%
    04:00 +32°C° 0 mm 4 mps 747 mmHg 73%
    05:00 +31°C° 0 mm 3 mps 747 mmHg 75%
    06:00 +31°C° 0 mm 3 mps 747 mmHg 77%
    07:00 +33°C° 0 mm 3 mps 747 mmHg 71%
    08:00 +35°C° 0 mm 3 mps 748 mmHg 65%
    09:00 +36°C° 0 mm 4 mps 748 mmHg 58%
    10:00 +37°C° 0 mm 4 mps 748 mmHg 55%
    11:00 +38°C° 0 mm 4 mps 747 mmHg 51%
    12:00 +39°C° 0 mm 3 mps 747 mmHg 47%
    13:00 +40°C° 0 mm 4 mps 746 mmHg 47%
    14:00 +40°C° 0 mm 4 mps 746 mmHg 46%
    15:00 +41°C° 0 mm 4 mps 745 mmHg 46%
    16:00 +40°C° 0 mm 4 mps 745 mmHg 50%
    17:00 +39°C° 0 mm 5 mps 745 mmHg 53%
    18:00 +37°C° 0 mm 5 mps 744 mmHg 57%
    19:00 +36°C° 0 mm 5 mps 745 mmHg 59%
    20:00 +35°C° 0 mm 5 mps 746 mmHg 62%
    21:00 +34°C° 0 mm 5 mps 746 mmHg 64%
    22:00 +34°C° 0 mm 5 mps 746 mmHg 66%
    23:00 +33°C° 0 mm 5 mps 747 mmHg 68%
    Show more